This demonstration page uses our WeatherBlox Daily Observations layout. Learn more.

Left ArrowRight Arrow

Hourly Observations for July 8, 2015

Temp ( °F °C ) Dew Point ( °F °C ) Humidity (%) Winds ( mph kmh ) Pressure ( in mb ) Visibility ( mi km ) Precip ( " mm )
12:15 am 00:15 Partly Cloudy 77 25 72 22 83 83 SSW 12 19 30.03 1017 10 16 N/A
12:35 am 00:35 Mostly Cloudy 79 26 72 22 79 79 SSW 12 19 30.00 1016 10 16 N/A
12:55 am 00:55 Partly Cloudy 77 25 72 22 83 83 SSW 12 19 30.00 1016 10 16 N/A
1:15 am 01:15 Clear 77 25 72 22 83 83 SW 6 9 30.00 1016 10 16 N/A
1:35 am 01:35 Clear 77 25 72 22 83 83 SSW 12 19 30.00 1016 10 16 N/A
1:55 am 01:55 Clear 75 24 72 22 89 89 SSW 7 11 30.00 1016 10 16 N/A
2:15 am 02:15 Clear 73 23 72 22 94 94 WSW 3 6 30.00 1016 10 16 N/A
2:35 am 02:35 Clear 73 23 72 22 94 94 W 5 7 30.00 1016 10 16 N/A
2:55 am 02:55 Clear 75 24 72 22 89 89 WSW 5 7 30.00 1016 10 16 N/A
3:15 am 03:15 Clear 77 25 72 22 83 83 SW 5 7 30.00 1016 10 16 N/A
3:35 am 03:35 Clear 77 25 72 22 83 83 SSW 12 19 30.00 1016 10 16 N/A
3:55 am 03:55 Partly Cloudy 75 24 72 22 89 89 SSW 6 9 30.00 1016 10 16 N/A
4:15 am 04:15 Clear 73 23 72 22 94 94 N N/A 30.00 1016 10 16 N/A
4:35 am 04:35 Clear 73 23 72 22 94 94 W 3 6 30.00 1016 10 16 N/A
4:55 am 04:55 Clear 73 23 72 22 94 94 SW 7 11 30.00 1016 7 11 N/A
5:15 am 05:15 Clear 73 23 72 22 94 94 SSW 10 17 30.00 1016 10 16 N/A
5:35 am 05:35 Partly Cloudy 73 23 72 22 94 94 S 5 7 30.00 1016 7 11 N/A
5:55 am 05:55 Mostly Cloudy 73 23 72 22 94 94 N N/A 30.00 1016 7 11 N/A
6:15 am 06:15 Partly Cloudy 73 23 73 23 100 100 SW 3 6 30.00 1016 7 11 N/A
6:35 am 06:35 Partly Cloudy 73 23 73 23 100 100 WSW 5 7 30.00 1016 7 11 N/A
6:55 am 06:55 Sunny 73 23 73 23 100 100 SSW 9 15 30.00 1016 7 11 N/A
7:15 am 07:15 Sunny 75 24 73 23 94 94 SW 5 7 30.00 1016 7 11 N/A
7:35 am 07:35 Partly Cloudy 75 24 73 23 94 94 W 3 6 30.00 1016 7 11 N/A
7:55 am 07:55 Mostly Cloudy 77 25 73 23 89 89 SW 6 9 30.00 1016 7 11 N/A
8:15 am 08:15 Mostly Cloudy with Light Rain 77 25 73 23 89 89 SSW 12 19 30.00 1016 7 11 N/A
8:35 am 08:35 Partly Cloudy 79 26 73 23 84 84 SSW 12 19 30.00 1016 7 11 N/A
8:55 am 08:55 Sunny 79 26 73 23 84 84 SSW 12 19 30.00 1016 10 16 N/A
9:15 am 09:15 Sunny 79 26 73 23 84 84 SW 6 9 30.00 1016 10 16 N/A
9:35 am 09:35 Mostly Cloudy 81 27 73 23 79 79 SSW 12 19 30.00 1016 10 16 N/A
9:55 am 09:55 Partly Cloudy 82 28 75 24 79 79 SW 8 13 30.00 1016 10 16 N/A
10:15 am 10:15 Sunny 82 28 77 25 84 84 S 7 11 30.00 1016 10 16 N/A
10:35 am 10:35 Mostly Cloudy 82 28 75 24 79 79 SW 9 15 30.00 1016 10 16 N/A
10:55 am 10:55 Cloudy 82 28 75 24 79 79 SSW 12 19 30.00 1016 10 16 N/A
11:15 am 11:15 Cloudy 84 29 77 25 79 79 SW 8 13 30.00 1016 10 16 N/A
11:35 am 11:35 Cloudy 82 28 75 24 79 79 W 6 9 30.00 1016 10 16 N/A
11:55 am 11:55 Cloudy 84 29 73 23 70 70 W 7 11 30.00 1016 10 16 N/A
12:15 pm 12:15 Cloudy 86 30 75 24 70 70 W 7 11 30.00 1016 10 16 N/A
12:35 pm 12:35 Cloudy 84 29 73 23 70 70 WNW 9 15 30.00 1016 10 16 N/A
12:55 pm 12:55 Cloudy 86 30 73 23 66 66 W 8 13 30.00 1016 10 16 N/A
1:15 pm 13:15 Cloudy 86 30 73 23 66 66 W 7 11 30.00 1016 10 16 N/A
1:35 pm 13:35 Cloudy 86 30 73 23 66 66 W 7 11 30.00 1016 10 16 N/A
1:55 pm 13:55 Cloudy 86 30 75 24 70 70 WNW 6 9 30.00 1016 10 16 N/A
2:15 pm 14:15 Cloudy 86 30 75 24 70 70 N N/A 30.00 1016 10 16 N/A
2:35 pm 14:35 Cloudy 84 29 75 24 74 74 W 7 11 29.97 1015 10 16 N/A
2:55 pm 14:55 Cloudy 86 30 77 25 75 75 WSW 5 7 29.94 1014 10 16 N/A
3:15 pm 15:15 Mostly Cloudy 88 31 77 25 70 70 WSW 6 9 29.94 1014 10 16 N/A
3:35 pm 15:35 Cloudy 88 31 77 25 70 70 WNW 8 13 29.94 1014 10 16 N/A
3:55 pm 15:55 Cloudy 86 30 75 24 70 70 NW 12 19 29.94 1014 10 16 N/A
4:15 pm 16:15 Cloudy 86 30 77 25 75 75 NNW 6 9 29.94 1014 10 16 N/A
4:35 pm 16:35 Mostly Cloudy 84 29 77 25 79 79 N 14 22 29.97 1015 10 16 N/A
4:55 pm 16:55 Cloudy with Thunderstorms 81 27 75 24 84 84 NNW 12 19 29.97 1015 10 16 N/A
5:15 pm 17:15 Mostly Cloudy with Nearby Thunderstorms 82 28 73 23 74 74 NW 5 7 29.97 1015 10 16 N/A
5:35 pm 17:35 Cloudy 81 27 77 25 89 89 SSW 9 15 30.00 1016 10 16 N/A
5:55 pm 17:55 Cloudy 81 27 77 25 89 89 S 12 19 30.00 1016 10 16 N/A
6:15 pm 18:15 Cloudy 81 27 77 25 89 89 SSW 10 17 29.97 1015 10 16 N/A
6:35 pm 18:35 Cloudy 79 26 77 25 94 94 SSW 9 15 30.00 1016 10 16 N/A
6:55 pm 18:55 Cloudy with Light Rain 79 26 77 25 94 94 SW 7 11 30.00 1016 5 8 N/A
7:15 pm 19:15 Cloudy 77 25 77 25 100 100 W 10 17 30.00 1016 7 11 0.02 0.51
7:35 pm 19:35 Cloudy with Strong Thunderstorms 75 24 75 24 100 100 SW 7 11 30.03 1017 2 2 0.38 9.65
7:55 pm 19:55 Cloudy with Rain 75 24 75 24 100 100 WSW 6 9 30.00 1016 5 8 0.43 10.92
8:15 pm 20:15 Mostly Cloudy with Rain 75 24 75 24 100 100 W 6 9 30.00 1016 7 11 0.02 0.51
8:35 pm 20:35 Cloudy with Rain 75 24 75 24 100 100 WSW 5 7 30.00 1016 7 11 0.05 1.27
8:55 pm 20:55 Cloudy 75 24 75 24 100 100 SW 5 7 30.00 1016 10 16 0.06 1.52
9:15 pm 21:15 Partly Cloudy 75 24 75 24 100 100 SW 5 7 30.00 1016 10 16 N/A
9:35 pm 21:35 Mostly Cloudy 73 23 73 23 100 100 SW 3 6 30.00 1016 10 16 N/A
9:55 pm 21:55 Partly Cloudy 73 23 73 23 100 100 WSW 5 7 30.03 1017 10 16 N/A
10:15 pm 22:15 Mostly Cloudy 73 23 73 23 100 100 W 6 9 30.03 1017 10 16 N/A
10:35 pm 22:35 Cloudy 75 24 75 24 100 100 SW 5 7 30.03 1017 10 16 N/A
10:55 pm 22:55 Cloudy 75 24 75 24 100 100 W 5 7 30.03 1017 10 16 N/A
11:15 pm 23:15 Partly Cloudy 73 23 73 23 100 100 WSW 5 7 30.03 1017 10 16 N/A
11:35 pm 23:35 Clear 73 23 73 23 100 100 WSW 7 11 30.03 1017 10 16 N/A
11:55 pm 23:55 Partly Cloudy with Light Rain 75 24 75 24 100 100 W 6 9 30.03 1017 10 16 N/A

Powered by AerisWeather